RH
16 15 15 14 11 10 12 14 19 25 29 33 34 33 38 44 42 42 48 51 47 52 66 68 66 69 70 69 70 73 75 78 81 77 70 64 65 66 63 60 56 52 53 48 44 44 44 42 39 38 37 35 36 35 38 38 34 33 31 31 35 38 40 39 33 37 45 46 44 46 46 46 48 52 53 51 53 54 53 52 47 48 48 43 43 46
16 15 15 14 11 10 10 12 18 24 28 33 37 36 35 39 43 40 39 46 47 48 63 70 62 62 69 68 70 74 74 79 80 75 73 70 67 68 65 62 59 56 57 52 45 44 45 43 41 40 39 37 36 36 37 37 36 36 34 31 32 35 37 37 35 38 46 48 45 45 47 47 45 47 50 51 54 56 52 45 45 50 49 44 44 44
16 15 14 14 12 13 12 11 18 26 28 30 35 36 34 38 43 39 34 38 43 44 51 59 57 58 62 65 69 74 73 78 77 71 75 76 71 71 67 65 64 61 60 54 47 46 45 43 43 42 41 38 37 38 37 36 36 36 36 34 32 33 32 36 37 37 43 47 45 46 48 48 46 44 49 52 52 55 53 44 43 47 45 44 46 45
16 14 14 14 13 16 15 11 18 28 28 27 31 32 34 39 41 37 33 34 37 39 42 47 50 53 57 59 64 70 68 67 70 69 72 73 70 70 67 67 69 67 63 57 49 47 46 42 43 43 42 41 39 39 38 36 35 34 37 36 32 32 30 34 38 35 42 47 45 47 46 47 46 42 46 50 50 52 53 48 45 44 42 45 52 51
16 14 13 14 14 15 16 15 20 26 26 25 27 28 31 36 39 38 35 34 35 35 36 39 43 47 50 49 52 59 60 60 64 65 67 67 67 68 68 69 70 68 67 61 52 49 48 44 43 44 43 42 40 40 38 36 34 32 36 37 33 31 30 32 34 33 39 42 42 45 45 46 46 43 44 47 49 50 51 51 49 45 43 47 54 54
17 16 15 15 16 16 20 22 20 21 23 22 21 25 32 36 38 40 35 31 34 34 33 35 39 45 46 46 51 55 59 61 63 64 65 66 66 65 66 68 68 66 65 63 55 51 50 47 45 45 44 43 41 41 39 37 35 32 33 36 33 31 31 31 30 29 34 35 35 40 42 44 45 44 43 45 50 51 50 53 51 49 49 50 55 55
18 19 18 17 18 18 24 28 20 18 20 18 16 20 31 38 40 41 35 29 31 33 31 30 36 47 51 52 57 59 62 63 62 66 68 68 68 65 64 66 66 65 63 62 59 55 53 50 47 47 47 45 43 42 41 38 37 34 33 34 32 31 32 31 28 26 30 33 33 37 40 43 44 43 43 44 50 51 49 53 53 52 53 51 55 56
17 21 22 21 23 23 25 28 23 17 17 19 19 16 24 35 41 43 36 28 30 34 34 30 32 46 55 55 57 61 64 65 63 68 73 73 69 65 65 66 66 65 62 62 63 60 60 56 50 50 51 49 45 44 42 40 38 36 35 33 29 31 35 34 29 24 27 33 34 36 41 45 43 41 43 43 46 50 50 53 53 53 54 51 52 58
19 26 28 23 25 27 24 25 24 17 17 26 27 20 21 28 35 40 34 28 31 34 35 33 30 39 55 58 58 62 65 65 64 66 74 77 72 65 65 67 68 67 66 65 66 65 64 63 56 54 54 52 49 47 44 43 40 38 38 35 28 27 32 36 31 25 27 32 33 36 41 46 44 43 44 42 43 48 50 52 53 53 56 54 50 53
24 28 30 24 22 25 22 24 27 19 19 29 31 25 23 24 28 32 30 29 35 37 36 36 33 37 55 62 60 67 68 64 64 64 68 72 72 70 67 68 67 65 68 69 67 65 63 63 61 57 56 55 53 53 53 49 44 43 42 38 30 25 28 32 31 29 29 31 32 35 40 45 46 45 45 43 42 45 48 51 51 50 54 56 51 50
28 26 26 23 21 23 22 26 28 22 22 30 31 28 26 24 24 25 26 27 35 40 36 35 35 37 53 65 64 68 68 62 61 63 62 63 65 69 70 71 69 67 69 69 67 66 64 64 63 61 59 58 55 57 61 56 50 49 46 40 34 29 29 29 29 29 31 32 33 33 36 41 44 47 47 45 43 43 44 47 50 49 50 54 54 52
30 28 28 26 24 24 23 26 29 24 25 29 30 28 26 23 23 22 22 23 30 38 36 33 34 33 47 63 64 62 62 59 58 57 58 59 59 61 65 68 70 69 69 71 72 71 69 67 65 63 62 61 59 60 62 60 58 57 52 46 39 34 32 30 28 30 31 33 33 33 35 37 40 44 46 45 44 42 41 43 49 49 49 51 54 53
28 30 31 28 27 26 25 28 30 27 27 30 29 27 24 21 20 20 20 20 24 32 35 32 30 34 47 58 57 56 59 58 55 54 56 58 56 57 61 63 64 64 66 70 73 71 71 70 67 66 64 61 62 61 59 61 62 60 57 50 43 37 34 31 29 30 31 32 32 33 35 35 36 40 43 44 42 41 41 43 48 50 48 49 49 52
28 27 27 28 27 26 27 29 32 30 29 30 29 25 23 22 22 21 20 20 20 25 31 29 29 41 54 57 52 52 57 57 54 54 56 57 57 57 58 60 60 62 65 66 69 70 71 70 68 68 65 61 58 56 56 57 59 59 58 52 46 41 37 34 32 31 31 32 32 33 34 35 35 36 39 41 43 42 42 44 48 50 48 47 47 49
28 23 25 28 25 22 24 30 36 35 29 28 27 25 22 24 27 24 19 20 21 20 22 23 30 43 54 57 52 49 54 57 53 52 55 55 56 56 56 59 61 63 64 63 66 70 71 71 72 71 67 63 59 57 56 55 55 58 59 54 49 46 42 38 35 33 32 32 32 33 33 34 34 35 37 40 42 44 43 45 48 49 49 49 48 48
31 26 23 23 20 19 20 26 33 35 30 27 25 26 24 25 31 28 23 25 25 21 17 21 35 47 50 53 53 47 51 57 54 52 54 53 54 56 58 61 62 63 63 63 66 68 68 69 71 72 70 66 62 60 59 58 57 58 60 58 52 49 47 43 40 37 35 33 33 34 33 34 34 35 37 38 39 44 45 46 48 49 50 51 50 47
35 31 24 18 18 18 18 21 25 27 31 29 26 25 23 25 33 32 28 28 27 24 19 24 40 50 50 53 52 47 49 55 54 53 53 55 57 60 62 62 63 65 65 64 65 66 66 65 68 74 77 72 67 63 60 61 59 57 59 57 53 51 50 47 44 40 38 35 34 35 34 34 34 33 37 39 39 43 45 46 48 49 48 48 48 46
35 32 25 18 19 18 15 18 20 21 26 28 26 26 23 25 31 32 31 29 28 25 21 25 38 44 48 55 54 48 48 51 54 56 55 56 59 59 59 58 61 67 68 64 66 67 67 67 71 76 78 75 72 70 66 63 61 60 59 57 55 53 49 48 46 43 44 39 33 34 34 34 35 34 38 41 41 43 44 44 46 48 48 46 45 46
36 35 29 20 20 19 15 16 18 18 21 24 27 28 27 28 29 30 33 33 29 25 22 29 39 41 43 51 53 50 49 49 54 59 57 53 52 53 55 57 58 64 66 66 69 69 69 70 72 73 74 73 75 78 74 68 66 65 62 60 61 59 56 55 49 45 50 46 36 35 34 32 34 34 36 39 39 42 43 44 45 45 47 47 44 44
36 37 34 24 20 20 17 15 17 18 18 21 25 24 26 31 31 30 30 31 29 26 25 33 45 50 49 52 57 55 51 52 57 61 59 52 49 50 54 57 59 60 62 66 70 68 67 69 68 69 70 70 75 80 78 73 70 67 64 64 67 67 65 64 56 50 53 50 42 39 35 31 32 33 34 35 35 37 40 41 44 44 44 45 45 44
33 35 36 29 21 18 18 16 17 19 18 19 22 23 24 30 34 34 30 28 30 28 28 33 48 62 61 56 59 59 53 54 60 61 56 51 50 53 56 56 58 60 62 67 70 68 68 68 64 64 66 68 72 79 79 76 71 68 69 70 69 68 66 63 59 57 56 52 45 41 38 34 31 30 33 34 33 33 35 37 40 42 43 43 44 44
31 32 34 30 23 19 20 19 18 20 19 18 19 22 24 28 34 37 33 29 29 29 27 31 49 69 67 57 56 55 53 56 61 60 53 49 51 54 56 56 55 57 59 64 67 68 69 67 63 63 64 65 71 76 79 79 74 73 75 72 69 68 66 62 59 58 56 54 50 45 43 40 35 32 33 34 34 33 31 33 35 38 40 41 41 43
33 32 34 35 30 25 23 20 18 20 20 19 19 21 24 30 33 34 34 32 29 26 26 33 54 70 67 61 57 52 52 56 61 60 51 48 50 51 53 54 55 56 57 60 63 65 67 66 64 64 64 65 69 73 76 77 76 79 79 73 71 69 65 62 59 58 59 59 55 49 47 46 42 39 37 37 38 36 32 32 33 34 35 37 39 40
32 32 35 39 36 28 23 20 19 20 20 19 19 20 23 29 32 31 34 34 29 27 26 36 60 72 67 63 59 55 55 55 57 58 52 47 48 48 49 51 53 56 56 58 61 62 66 68 67 67 68 68 68 69 74 76 77 82 81 77 76 74 68 64 61 61 63 63 57 50 48 48 45 41 41 42 40 36 34 34 34 34 33 33 35 37
33 35 37 40 38 30 26 23 21 21 20 19 20 20 22 27 29 30 32 31 31 32 27 33 57 71 67 64 60 56 56 54 54 56 54 49 47 47 48 48 49 52 55 58 61 61 66 70 70 70 71 72 70 67 71 76 76 80 83 81 79 77 73 71 67 63 65 67 63 54 48 49 48 43 44 47 44 36 33 32 32 33 34 33 34 34
37 41 43 47 45 38 35 30 25 22 20 20 22 21 23 23 23 27 30 29 32 34 34 42 58 67 66 65 62 58 56 55 52 52 53 52 50 47 46 46 46 47 51 56 60 62 65 69 71 71 70 71 70 69 70 72 72 77 82 83 80 77 74 74 72 68 65 66 63 57 53 53 52 47 44 47 47 40 34 32 31 31 33 35 33 32
37 40 43 50 52 49 48 40 30 26 21 21 23 22 22 21 21 24 25 27 32 33 39 55 62 62 63 62 60 59 57 55 51 50 52 54 52 49 46 45 45 44 46 51 55 60 66 68 69 69 69 70 71 71 71 71 72 74 78 81 81 78 75 75 75 71 68 66 62 60 59 58 57 51 43 45 51 46 37 33 32 31 32 34 34 33
38 38 37 43 46 47 48 42 34 30 26 24 23 21 21 22 21 23 23 29 33 33 45 60 59 56 60 58 56 59 56 54 52 48 49 51 50 48 45 44 44 42 43 47 50 54 60 65 67 66 67 68 69 70 71 70 71 71 73 76 78 78 76 74 74 73 70 68 66 63 61 59 59 57 51 52 55 49 39 35 37 36 34 34 34 33
39 40 37 37 39 40 42 41 36 32 28 26 23 21 22 22 23 25 26 29 30 32 46 61 59 56 59 56 56 58 56 55 53 49 48 48 47 46 43 42 42 41 42 44 46 48 51 56 60 62 64 66 66 68 69 69 69 69 69 72 74 75 75 73 74 74 72 71 70 68 65 62 60 59 57 57 53 46 40 38 39 39 37 37 36 34
37 43 40 35 35 36 37 38 37 33 29 27 25 23 21 22 24 26 27 27 28 33 44 55 59 60 59 57 58 57 54 56 55 52 50 48 46 45 43 43 43 43 45 47 48 49 49 51 54 55 57 59 60 63 65 66 68 68 69 71 71 72 73 73 73 75 75 74 74 73 71 69 65 60 58 57 51 45 44 43 41 41 41 40 38 37
36 42 42 35 34 35 33 34 35 34 31 28 27 25 22 22 23 24 25 26 29 36 43 48 58 63 60 58 60 57 54 55 55 53 51 47 45 45 44 44 45 46 47 50 51 51 51 52 52 51 50 51 52 54 58 61 64 66 69 71 72 70 71 73 74 76 77 76 76 77 76 72 68 64 61 59 54 49 48 48 43 41 41 41 41 40
34 38 40 37 37 36 33 31 31 32 32 29 28 26 24 24 25 24 26 26 27 37 47 53 60 63 60 59 61 60 58 56 54 53 50 47 46 44 43 44 45 46 47 50 52 51 51 51 52 51 50 50 50 50 51 54 57 61 64 69 72 72 71 73 75 75 77 79 79 79 78 74 69 67 64 62 57 53 55 58 53 45 42 41 41 42
36 37 37 34 35 38 34 31 30 29 29 29 31 30 27 27 28 28 29 28 28 35 47 56 60 61 61 62 61 60 60 59 57 53 50 49 47 44 43 42 42 44 46 48 49 51 51 51 51 51 51 51 51 51 50 50 50 53 57 62 68 71 72 73 75 75 78 80 80 79 80 79 75 74 71 67 64 59 58 60 60 57 53 47 42 42
37 37 37 33 33 35 36 35 31 28 29 33 36 35 33 34 34 32 33 33 33 35 41 51 58 59 59 60 59 58 57 57 57 54 50 49 48 45 44 42 41 42 42 43 46 48 49 50 50 49 49 49 49 48 49 48 48 48 50 56 62 65 69 73 77 78 79 81 82 81 81 82 81 80 78 74 72 69 64 59 58 60 62 61 54 46
36 34 38 38 33 34 39 39 34 32 36 41 40 36 36 39 39 37 38 39 40 41 42 47 53 54 51 54 56 54 53 54 55 52 47 47 47 45 44 44 41 40 40 40 41 43 44 46 47 46 46 47 48 46 45 44 45 47 47 51 57 60 63 69 75 78 79 80 82 83 82 82 82 82 81 79 77 75 73 69 64 62 65 71 70 60
36 35 37 36 31 35 42 38 35 39 43 43 40 36 34 37 39 41 44 45 46 49 48 46 49 47 45 50 52 49 49 53 53 50 47 45 44 43 42 43 41 40 39 38 38 39 40 41 42 41 41 43 45 45 43 40 41 44 45 48 53 54 57 64 70 74 76 77 79 82 84 83 81 81 83 83 81 78 77 76 73 68 67 69 71 71
30 33 36 35 32 36 40 34 35 42 44 41 41 38 33 34 36 38 42 46 48 51 52 49 48 46 44 48 50 47 48 53 54 51 47 44 43 42 40 40 40 39 38 37 36 36 37 37 37 36 36 37 38 40 40 39 39 41 43 45 47 49 54 61 67 69 70 72 76 79 82 83 83 83 83 83 82 81 81 80 76 70 66 65 65 66
23 27 33 38 38 36 35 35 36 38 38 40 41 36 31 32 34 34 39 45 45 46 51 51 50 50 50 50 50 49 50 52 54 52 46 41 40 39 39 39 38 38 37 37 35 34 35 35 33 32 32 32 32 33 33 35 37 40 44 45 44 46 50 56 63 64 64 66 69 71 74 79 82 84 84 83 83 83 84 82 77 71 67 67 65 62
22 24 25 31 36 35 34 35 33 34 40 47 45 36 29 27 28 30 36 42 41 40 44 48 49 51 54 54 53 51 50 52 56 55 49 43 38 36 37 37 36 36 36 36 35 34 35 35 32 32 31 30 29 30 29 29 32 34 37 40 41 46 50 53 57 57 56 59 63 65 69 74 77 80 82 83 83 84 83 81 79 76 74 72 70 66
24 25 22 24 31 34 34 31 29 34 46 48 42 34 28 24 26 29 32 38 41 38 37 41 46 47 50 52 51 48 48 53 56 53 48 45 41 37 37 37 35 36 36 34 33 34 35 35 33 32 31 30 30 31 29 28 29 30 30 30 32 38 44 49 50 48 49 53 56 59 64 68 72 75 75 76 79 82 82 79 79 81 80 75 73 71
28 27 24 26 28 30 33 30 28 40 53 48 36 32 27 23 27 34 37 40 42 38 33 36 42 43 41 40 40 43 49 52 52 49 47 45 42 40 40 39 38 37 36 34 33 32 32 32 32 31 31 31 31 31 30 30 31 30 29 26 24 28 33 37 38 39 42 46 49 52 56 60 65 69 70 70 73 75 77 77 76 77 79 76 75 75
30 31 30 31 29 29 33 32 29 38 51 47 37 31 24 23 31 39 41 43 43 39 34 35 41 41 37 34 34 40 45 43 41 44 45 42 41 40 39 38 36 35 35 34 32 31 30 30 30 30 30 30 30 30 30 30 31 32 31 27 25 25 26 26 29 31 35 38 41 45 49 51 55 59 63 68 69 68 70 72 73 75 75 75 74 75
29 31 32 32 30 29 34 37 36 41 47 45 40 34 26 26 36 42 42 42 41 39 34 34 37 38 34 30 29 31 33 32 30 34 36 37 37 36 35 35 34 33 33 33 31 31 30 30 30 28 26 27 28 28 29 30 30 30 29 27 26 24 24 23 24 27 30 32 34 37 40 44 47 49 53 60 66 67 65 65 67 72 73 73 73 73
31 31 31 33 35 32 32 35 38 43 48 45 43 40 33 28 34 41 43 41 39 36 33 29 30 30 27 25 25 25 26 28 27 28 29 30 31 31 31 33 34 33 33 32 31 30 30 31 31 29 26 24 25 26 28 28 28 26 25 25 25 25 24 24 23 24 27 30 31 33 34 36 39 41 43 48 53 59 62 63 65 70 71 71 72 75
34 34 35 37 38 37 38 43 43 43 45 42 39 41 39 32 29 32 36 38 35 31 28 25 23 24 23 22 22 22 23 24 24 24 24 25 25 26 28 29 30 32 32 32 32 32 32 32 32 31 29 25 22 23 24 25 26 27 26 25 25 24 23 23 23 24 26 27 29 31 32 34 34 36 39 41 43 48 53 56 60 65 68 68 70 74
38 37 37 37 36 36 38 43 44 41 40 38 35 33 34 33 30 26 26 29 29 25 23 22 21 22 22 22 21 20 20 21 22 22 22 22 23 24 25 25 26 28 29 30 31 32 32 32 31 32 32 29 24 22 24 25 27 27 24 23 21 20 20 21 22 23 24 25 26 28 30 32 33 34 36 38 38 40 41 44 48 54 61 68 73 75
44 40 38 36 36 36 36 38 40 39 37 36 36 31 27 26 27 26 25 25 25 23 22 23 23 23 23 23 21 20 19 19 20 20 21 21 22 22 22 23 24 25 26 26 28 28 30 31 31 31 32 30 27 24 23 23 23 22 20 19 19 19 19 19 20 22 22 23 25 28 29 31 33 35 36 36 37 39 41 44 48 52 55 63 72 78
53 49 48 44 39 37 38 40 42 42 38 37 36 35 31 27 25 25 25 24 24 25 25 25 25 25 24 23 22 21 20 19 19 20 21 21 20 21 21 21 21 22 23 24 24 25 27 27 28 29 29 29 28 26 22 19 16 17 17 17 18 18 18 17 17 18 18 20 24 28 31 34 36 36 37 37 38 41 44 46 49 51 54 56 61 69
59 57 58 58 52 45 43 42 43 44 43 40 36 33 34 35 34 32 31 27 25 25 26 26 26 26 25 24 22 21 21 20 20 20 21 20 20 21 20 20 21 21 21 22 22 23 24 24 26 26 27 28 28 28 25 20 15 13 13 15 17 19 22 22 20 18 17 18 22 25 30 33 35 36 37 36 36 38 44 47 47 46 47 48 49 53
64 62 61 61 59 56 53 50 48 49 49 47 43 39 39 40 41 40 40 37 33 30 28 27 27 27 26 25 23 22 22 22 21 21 21 21 21 21 20 21 21 21 21 21 22 22 23 23 24 25 25 26 27 27 28 26 22 19 17 18 20 22 25 27 27 24 20 19 20 24 28 30 32 34 35 37 36 36 36 39 41 40 38 38 39 40
68 69 68 65 62 60 60 58 56 56 57 56 53 51 50 49 46 43 44 46 46 43 39 34 31 30 29 28 25 24 24 23 23 22 22 22 21 21 22 22 22 22 22 22 22 23 23 23 23 24 24 25 25 25 26 27 27 26 25 25 26 26 27 29 29 28 26 23 23 24 26 27 28 30 32 35 37 36 32 29 31 34 35 34 35 35